TimeAKST,TemperatureF,Dew PointF,Humidity,Sea Level PressureIn,VisibilityMPH,Wind Direction,Wind SpeedMPH,Gust SpeedMPH,PrecipitationIn,Events,Conditions,WindDirDegrees,DateUTC
12:53 AM,30.0,26.1,85,29.79,7.0,SE,8.1,-,0.00,Snow,Light Snow,140,2013-02-12 09:53:00
1:26 AM,30.0,27.0,88,29.79,7.0,SSE,9.2,16.1,0.00,Snow,Light Snow,150,2013-02-12 10:26:00
1:39 AM,30.0,27.0,88,29.79,1.8,SSE,8.1,-,0.00,Snow,Light Snow,150,2013-02-12 10:39:00
1:53 AM,28.9,27.0,92,29.79,2.0,SSE,10.4,17.3,0.00,Snow,Light Snow,160,2013-02-12 10:53:00
2:04 AM,30.0,27.0,88,29.79,5.0,SSE,8.1,17.3,0.00,Snow,Light Snow,160,2013-02-12 11:04:00
2:17 AM,30.0,27.0,88,29.79,5.0,SSE,9.2,18.4,0.00,Snow,Light Snow,160,2013-02-12 11:17:00
2:53 AM,30.0,27.0,88,29.80,5.0,SSE,8.1,17.3,0.00,Snow,Light Snow,150,2013-02-12 11:53:00
3:53 AM,30.0,27.0,88,29.79,4.0,SSE,10.4,18.4,0.00,Snow,Light Snow,160,2013-02-12 12:53:00
4:53 AM,30.0,27.0,88,29.79,4.0,SSE,10.4,17.3,0.00,Snow,Light Snow,150,2013-02-12 13:53:00
5:17 AM,30.0,28.0,92,29.79,2.5,SSE,8.1,-,0.00,Snow,Light Snow,150,2013-02-12 14:17:00
5:30 AM,30.0,28.0,92,29.79,1.5,SSE,11.5,18.4,0.00,Snow,Light Snow,160,2013-02-12 14:30:00
5:53 AM,30.0,28.0,92,29.79,1.2,SSE,6.9,17.3,0.00,Snow,Light Snow,160,2013-02-12 14:53:00
6:53 AM,28.9,28.0,96,29.80,1.8,SSE,8.1,18.4,0.01,Snow,Light Snow,160,2013-02-12 15:53:00
7:14 AM,28.9,28.0,96,29.79,1.5,Variable,6.9,17.3,0.00,Snow,Light Snow,0,2013-02-12 16:14:00
7:28 AM,28.9,28.0,96,29.79,2.0,SSE,8.1,-,0.00,Snow,Light Snow,160,2013-02-12 16:28:00
7:53 AM,28.9,28.0,96,29.79,2.5,SE,10.4,17.3,0.00,Snow,Light Snow,140,2013-02-12 16:53:00
8:29 AM,30.0,28.0,92,29.78,1.8,SSE,10.4,16.1,0.00,Snow,Light Snow,150,2013-02-12 17:29:00
8:39 AM,30.0,28.0,92,29.79,1.2,SSE,9.2,-,0.00,Snow,Light Snow,150,2013-02-12 17:39:00
8:53 AM,30.0,27.0,88,29.79,1.0,SSE,8.1,18.4,0.01,Snow,Light Snow,150,2013-02-12 17:53:00
9:03 AM,30.0,28.0,92,29.79,0.8,SE,9.2,18.4,0.00,Snow,Light Snow,140,2013-02-12 18:03:00
9:21 AM,30.0,27.0,88,29.79,1.2,SE,8.1,-,0.00,Snow,Light Snow,140,2013-02-12 18:21:00
9:34 AM,30.0,27.0,88,29.79,3.0,Variable,5.8,-,0.00,Snow,Light Snow,0,2013-02-12 18:34:00
9:46 AM,30.0,27.0,88,29.79,3.0,SE,10.4,17.3,0.00,Snow,Light Snow,140,2013-02-12 18:46:00
9:53 AM,30.0,27.0,88,29.80,3.0,SE,9.2,17.3,0.00,Snow,Light Snow,140,2013-02-12 18:53:00
10:53 AM,30.0,28.0,92,29.81,6.0,SSE,8.1,-,0.00,Snow,Light Snow,150,2013-02-12 19:53:00
11:53 AM,30.9,26.1,82,29.81,9.0,SE,8.1,17.3,0.00,,Overcast,130,2013-02-12 20:53:00
12:53 PM,32.0,26.1,79,29.81,6.0,ESE,8.1,20.7,0.00,Snow,Light Snow,120,2013-02-12 21:53:00
1:53 PM,30.9,27.0,85,29.80,3.0,SE,8.1,17.3,0.00,Snow,Light Snow,140,2013-02-12 22:53:00
2:05 PM,30.9,27.0,85,29.80,2.5,SE,9.2,-,0.00,Snow,Light Snow,140,2013-02-12 23:05:00
2:12 PM,30.9,27.0,85,29.80,3.0,SE,8.1,-,0.00,Snow,Light Snow,140,2013-02-12 23:12:00
2:53 PM,32.0,27.0,82,29.80,3.0,ESE,8.1,18.4,0.00,Snow,Light Snow,120,2013-02-12 23:53:00
3:06 PM,30.9,28.0,89,29.79,2.0,SE,8.1,17.3,0.00,Snow,Light Snow,140,2013-02-13 00:06:00
3:16 PM,30.9,27.0,85,29.79,1.8,SE,10.4,17.3,0.00,Snow,Light Snow,140,2013-02-13 00:16:00
3:23 PM,30.9,27.0,85,29.79,2.0,SE,9.2,17.3,0.00,Snow,Light Snow,130,2013-02-13 00:23:00
3:33 PM,30.9,28.0,89,29.79,1.2,SSE,9.2,16.1,0.00,Snow,Light Snow,150,2013-02-13 00:33:00
3:40 PM,30.9,28.0,89,29.78,1.0,SE,9.2,-,0.00,Snow,Light Snow,140,2013-02-13 00:40:00
3:50 PM,30.2,28.4,93,29.78,2.0,SE,9.2,16.1,0.00,Snow,Light Snow,140,2013-02-13 00:50:00
3:53 PM,30.9,28.0,89,29.79,2.5,SE,8.1,16.1,0.00,Snow,Light Snow,140,2013-02-13 00:53:00
4:00 PM,30.9,28.0,89,29.78,3.0,Variable,6.9,17.3,0.00,Snow,Light Snow,0,2013-02-13 01:00:00
4:53 PM,30.9,28.9,92,29.78,3.0,SSE,9.2,18.4,0.00,Snow,Light Snow,150,2013-02-13 01:53:00
5:03 PM,30.0,28.9,96,29.77,2.0,SE,9.2,17.3,0.00,Snow,Light Snow,140,2013-02-13 02:03:00
5:53 PM,30.0,28.9,96,29.77,1.8,SSE,9.2,18.4,0.00,Snow,Light Snow,150,2013-02-13 02:53:00
6:00 PM,30.0,28.9,96,29.77,1.5,SSE,9.2,18.4,0.00,Snow,Light Snow,150,2013-02-13 03:00:00
6:53 PM,30.9,28.9,92,29.77,1.5,SSE,9.2,18.4,0.01,Snow,Light Snow,160,2013-02-13 03:53:00
7:31 PM,30.9,30.0,96,29.75,1.0,SSE,11.5,19.6,0.01,Snow,Light Snow,150,2013-02-13 04:31:00
7:39 PM,30.9,30.0,96,29.76,0.8,SSE,8.1,19.6,0.01,Snow,Light Snow,150,2013-02-13 04:39:00
7:53 PM,30.9,30.9,100,29.76,0.8,SSE,11.5,20.7,0.02,Snow,Light Snow,160,2013-02-13 04:53:00
8:09 PM,30.9,30.9,100,29.76,0.5,SE,10.4,19.6,0.02,Fog-Snow,Snow,140,2013-02-13 05:09:00
8:53 PM,30.9,30.9,100,29.76,0.5,SE,9.2,19.6,0.08,Fog-Snow,Snow,130,2013-02-13 05:53:00
9:53 PM,32.0,30.9,96,29.76,0.5,SE,9.2,18.4,0.07,Fog-Snow,Snow,130,2013-02-13 06:53:00
10:41 PM,33.1,32.0,96,29.75,1.0,SE,13.8,25.3,0.07,Snow,Light Snow,130,2013-02-13 07:41:00
10:49 PM,32.0,32.0,100,29.75,0.5,ESE,10.4,25.3,0.08,Fog-Snow,Snow,110,2013-02-13 07:49:00
10:53 PM,33.1,32.0,96,29.75,0.5,SSE,11.5,23.0,0.09,Fog-Snow,Snow,150,2013-02-13 07:53:00
11:09 PM,33.1,30.9,92,29.75,1.2,ESE,16.1,27.6,0.01,Snow,Light Snow,110,2013-02-13 08:09:00
11:19 PM,34.0,30.9,89,29.74,1.8,ESE,12.7,25.3,0.01,Snow,Light Snow,120,2013-02-13 08:19:00
11:25 PM,34.0,30.0,85,29.74,2.0,ESE,12.7,28.8,0.01,Snow,Light Snow,110,2013-02-13 08:25:00
11:48 PM,33.8,30.2,87,29.74,1.0,ESE,15.0,34.5,0.01,Snow,Light Snow,110,2013-02-13 08:48:00
11:53 PM,33.1,30.0,89,29.75,0.8,East,13.8,31.1,0.02,Snow,Light Snow,90,2013-02-13 08:53:00